Location: Kalamazoo
(42.2920°N, 85.5870°W)
Time: 19:52:49
(UTC-05:00)

Daily predictions for brighter satellites

Satellite Brightness Start Highest point End
(mag) Time Altitude Azimuth Time Altitude Azimuth Time Altitude Azimuth
USA 215 4.2 18:49:19 10° NE 18:55:26 44° NNW 19:01:32 10° W
Cosmos 2322 3.7 18:50:45 10° NNW 18:56:30 74° ENE 19:02:11 10° SSE
Thor Agena Rocket 4.3 18:55:32 10° N 19:00:28 57° WNW 19:05:24 10° SSW
SKYMED 2 3.8 18:57:17 10° N 19:01:39 80° WNW 19:05:59 10° SSW
BREEZE-M DEB (TANK) 3.9 18:58:44 10° SSW 19:02:59 27° SSE 19:05:19 10° E
CZ-3C R/B 4.2 19:01:34 10° SW 19:05:42 12° SSW 19:08:23 10° S
Cosmos 1850 Rocket 4.2 19:00:53 10° S 19:05:59 50° ESE 19:11:08 10° NNE
Cosmos 2208 Rocket 4.3 19:00:54 10° N 19:06:11 49° ENE 19:11:24 10° SE
Meteor 1-19 Rocket 4.3 19:01:24 10° N 19:07:06 67° ENE 19:12:51 10° SSE
SJ-6B 3.0 19:05:55 10° SSE 19:09:43 47° ENE 19:13:29 10° N
Cosmos 405 Rocket 4.4 19:07:37 10° NNE 19:10:14 16° ENE 19:12:50 10° ESE
Cosmos 2237 Rocket 3.6 19:06:30 10° N 19:10:41 20° NE 19:14:36 11° E
Cosmos 1954 Rocket 4.3 19:05:32 10° SSW 19:10:42 72° WNW 19:15:58 10° NNE
ALOS 2.7 19:09:06 10° SE 19:13:26 40° ENE 19:17:48 10° N
Cosmos 1536 Rocket 4.3 19:09:39 10° NNW 19:14:05 61° W 19:18:29 10° S
Cosmos 2297 Rocket 3.9 19:13:03 10° ESE 19:14:20 11° E 19:14:24 11° E
HJ-1C 4.2 19:11:35 10° SE 19:14:35 30° ENE 19:17:36 10° N
Cosmos 2237 4.2 19:09:24 10° NNW 19:15:09 71° ENE 19:20:50 10° SSE
COSMOS 2428 2.8 19:09:40 10° NNW 19:15:16 56° ENE 19:20:51 10° SE
H-2A R/B 3.8 19:13:33 10° ESE 19:16:33 23° ENE 19:19:35 10° NNE
Okean 1-7 Rocket 3.8 19:14:04 10° N 19:18:29 50° E 19:22:49 10° SSE
Meteor 2-4 Rocket 3.6 19:15:40 10° N 19:21:08 61° ENE 19:26:27 10° SSE
Gbstr 26 Del rocket 2.9 19:18:11 10° WSW 19:22:02 65° NNW 19:25:40 10° NE
Cosmos 2285 Rocket 4.3 19:15:58 10° N 19:22:10 46° ENE 19:28:16 10° SE
Cosmos 2219 Rocket 2.7 19:18:10 10° N 19:23:21 37° ENE 19:28:32 10° SE
Cosmos 2360 Rocket 2.9 19:18:01 10° NNW 19:23:36 60° WSW 19:29:09 10° S
Meteor 1-23 Rocket 4.3 19:21:09 10° N 19:26:52 57° ENE 19:32:29 10° SSE
Okean 2 4.1 19:24:18 10° NNE 19:28:02 31° ENE 19:31:46 10° SE
Cosmos 2219 3.2 19:26:26 10° SSW 19:32:08 72° ESE 19:37:53 10° NNE
Atlas Centaur 2 4.5 19:30:24 10° S 19:32:34 11° SSE 19:34:38 10° SE
FREGAT/IRIS 2.8 19:30:22 10° S 19:33:26 76° WSW 19:36:33 10° NNW
Cosmos 2227 Rocket 3.2 19:30:05 10° SSE 19:34:22 23° E 19:38:28 11° NE
Abrixas rocket 2.2 19:31:46 10° WSW 19:35:07 85° SSE 19:37:11 21° ENE
Helios 1B rocket 3.6 19:32:04 10° NE 19:35:15 21° E 19:38:23 10° SE
Helios 1A 4.0 19:33:28 17° ESE 19:35:31 25° ENE 19:38:57 10° NNE
Cosmos 1300 Rocket 4.3 19:34:17 10° SSW 19:38:38 56° W 19:43:01 10° N
Cosmos 1536 2.8 19:35:50 10° S 19:39:49 87° W 19:43:49 10° N
SAR-Lupe-4 4.2 19:44:54 26° ESE 19:46:08 34° ENE 19:49:25 10° N
SL-16 R/B 3.7 19:42:39 10° N 19:46:23 18° NE 19:47:23 17° ENE
Cosmos 1455 Rocket 3.9 19:43:09 10° SE 19:46:47 26° E 19:50:25 10° NNE
Cosmos 1437 4.2 19:50:59 10° NNE 19:52:45 23° NE 19:52:45 23° NE
Cosmos 1763 Rocket 4.3 19:52:03 10° N 19:56:34 30° ENE 19:57:29 28° E
Resurs 01 Rocket 1.5 19:55:41 10° SSE 20:00:05 90° NNE 20:04:31 10° NNW
Cosmos 1610 Rocket 4.4 19:59:59 10° S 20:06:09 70° E 20:12:17 10° NNE
Cosmos 2333 Rocket 2.2 20:03:42 10° NNW 20:09:28 69° ENE 20:12:59 24° SE
Cosmos 1980 3.7 20:04:53 10° NNW 20:10:28 56° ENE 20:12:50 33° SE
Resurs 1-3 3.6 20:06:06 10° SSE 20:10:29 84° WSW 20:14:55 10° NNW
FENGYUN 3A 4.2 20:06:18 10° S 20:11:38 61° WSW 20:17:02 10° NNW
GEOS 3 Rocket 3.6 20:08:20 18° NE 20:12:19 67° SE 20:17:34 10° SSW
GPS 2-04 Rocket1 3.8 20:09:37 10° WSW 20:13:29 34° S 20:14:12 32° SSE
Cosmos 1892 Rocket 3.5 20:18:38 10° N 20:23:01 82° W 20:26:07 19° S
OTV 4 2.8 20:21:35 10° SW 20:22:38 17° SSW 20:22:38 17° SSW
Cosmos 1025 Rocket 4.5 20:21:08 10° NNW 20:25:14 39° W 20:29:19 10° SSW
Cosmos 468 Rocket 4.0 20:20:21 10° NNW 20:25:37 83° WSW 20:28:51 24° SSE
USA 229 DEB 4.2 20:21:55 10° NW 20:28:56 61° WSW 20:35:24 13° SSE
USA 229 4.2 20:22:00 10° NW 20:29:01 61° WSW 20:35:26 13° SSE
USA 186 4.3 20:31:50 13° NNW 20:31:50 13° NNW 20:32:12 10° NNW
Spot 2 Rocket 4.3 20:25:21 10° S 20:30:14 51° W 20:35:12 10° NNW
Cosmos 1515 4.3 20:30:09 10° N 20:33:04 50° N 20:33:04 50° N
Cosmos 2082 3.6 20:30:41 10° S 20:36:20 66° ESE 20:37:59 45° NE
Hubble Space Telescope 3.4 20:38:32 10° SSW 20:38:56 11° SSW 20:38:56 11° SSW
Spot 1 4.5 20:39:07 39° SSW 20:40:21 57° WSW 20:44:29 10° NNW
NOSS 3-1 (A) 4.0 20:34:12 10° NNW 20:41:44 66° NE 20:44:07 47° ESE
ERS-1 Rocket 4.1 20:45:10 30° NNE 20:45:10 30° NNE 20:47:59 10° N
Cosmos 332 Rocket 4.1 20:40:09 10° NNW 20:44:08 54° NNE 20:44:08 54° NNE
Cosmos 405 Rocket 4.2 20:42:42 10° NNW 20:46:30 38° W 20:48:31 22° SSW
Envisat 2.9 20:47:02 72° NE 20:47:02 72° NE 20:51:46 10° N
Cosmos 1814 Rocket 4.1 20:41:33 10° NNW 20:46:42 71° WSW 20:47:53 51° S
Cosmos 1544 Rocket 4.2 20:42:40 10° SSW 20:46:53 52° W 20:51:08 10° N
ATLAS 2AS CENTAUR R/B 4.0 20:40:04 10° NNW 20:47:00 30° NNE 20:48:06 29° NE
USA 32 3.9 20:49:01 10° N 20:54:07 84° NNW 20:54:07 84° NNW
Nadezhda 3 Rocket 4.2 20:48:19 10° NNW 20:54:26 68° W 20:59:43 14° S
Cosmos 371 Rocket 4.2 20:49:57 10° NNW 20:53:07 39° N 20:53:07 39° N
Cosmos 2237 Rocket 2.3 20:49:37 10° NNW 20:55:19 71° WSW 20:56:29 54° S
Cosmos 2297 Rocket 2.3 20:51:46 10° SSW 20:56:25 62° S 20:56:25 62° S
NOSS 3-1 (C) 4.0 20:51:59 10° NW 20:59:38 84° SW 21:02:16 49° SSE
Cosmos 1066 Rocket 4.1 20:54:13 10° NNW 20:59:51 83° W 21:00:03 81° SW
Cosmos 2341 Rocket 4.1 20:59:03 10° SSW 21:05:24 75° W 21:11:50 10° N
Cosmos 2219 Rocket 3.7 21:02:16 10° NW 21:07:12 32° WSW 21:10:46 17° SSW
Helios 1B rocket 4.1 21:06:53 10° N 21:10:36 33° WNW 21:14:19 10° SW
Cosmos 2227 Rocket 2.9 21:12:30 10° SW 21:18:01 52° WNW 21:20:36 30° N
Atlas Centaur 2 4.4 21:16:11 10° SW 21:18:26 17° SSW 21:18:26 17° SSW
SL-16 R/B 3.1 21:25:32 10° NNW 21:29:17 43° NNW 21:29:17 43° NNW
ATLAS 2AS CENTAUR R/B 4.1 22:30:58 10° NW 22:35:33 38° NW 22:35:33 38° NW
